TimeEST,TemperatureF,Dew PointF,Humidity,Sea Level PressureIn,VisibilityMPH,Wind Direction,Wind SpeedMPH,Gust SpeedMPH,PrecipitationIn,Events,Conditions,WindDirDegrees,DateUTC
12:53 AM,41.0,37.0,86,30.35,5.0,East,4.6,-,0.02,Rain,Light Rain,90,2014-01-10 05:53:00
1:13 AM,41.0,37.9,89,30.32,10.0,East,5.8,-,0.00,,Overcast,90,2014-01-10 06:13:00
1:53 AM,39.9,39.0,97,30.32,5.0,East,4.6,-,0.00,Rain,Light Rain,80,2014-01-10 06:53:00
2:09 AM,39.9,39.0,97,30.30,2.0,ENE,3.5,-,0.03,Rain,Rain,60,2014-01-10 07:09:00
2:31 AM,39.9,39.0,97,30.30,4.0,East,5.8,-,0.06,Rain,Light Rain,80,2014-01-10 07:31:00
2:53 AM,39.9,39.0,97,30.32,4.0,East,4.6,-,0.06,Rain,Light Rain,90,2014-01-10 07:53:00
3:53 AM,39.9,39.0,97,30.30,5.0,East,3.5,-,0.01,,Overcast,80,2014-01-10 08:53:00
4:42 AM,39.9,39.9,100,30.27,2.5,Calm,Calm,-,0.01,Rain,Light Rain,0,2014-01-10 09:42:00
4:53 AM,39.9,39.0,97,30.28,2.5,NE,4.6,-,0.01,Rain,Light Rain,50,2014-01-10 09:53:00
5:04 AM,39.9,39.0,97,30.27,3.0,Calm,Calm,-,0.00,,Overcast,0,2014-01-10 10:04:00
5:18 AM,39.9,39.0,97,30.26,3.0,Variable,3.5,-,0.00,,Overcast,0,2014-01-10 10:18:00
5:30 AM,39.9,39.0,97,30.27,2.5,Calm,Calm,-,0.01,Rain,Light Rain,0,2014-01-10 10:30:00
5:53 AM,39.9,39.9,100,30.28,2.0,Calm,Calm,-,0.01,Rain,Light Rain,0,2014-01-10 10:53:00
6:05 AM,39.9,39.9,100,30.26,3.0,Calm,Calm,-,0.00,,Overcast,0,2014-01-10 11:05:00
6:20 AM,39.9,39.9,100,30.25,4.0,Calm,Calm,-,0.00,,Overcast,0,2014-01-10 11:20:00
6:53 AM,39.9,39.0,97,30.27,4.0,NE,3.5,-,0.00,,Overcast,50,2014-01-10 11:53:00
7:36 AM,39.9,39.9,100,30.26,2.0,ENE,3.5,-,0.01,Rain,Light Rain,70,2014-01-10 12:36:00
7:53 AM,39.9,39.9,100,30.28,2.5,Calm,Calm,-,0.01,Rain,Light Rain,0,2014-01-10 12:53:00
8:06 AM,41.0,39.9,96,30.26,1.2,Calm,Calm,-,0.00,,Overcast,0,2014-01-10 13:06:00
8:53 AM,41.0,39.9,96,30.28,1.5,Variable,3.5,-,0.01,,Overcast,0,2014-01-10 13:53:00
9:08 AM,41.0,39.9,96,30.26,2.5,East,5.8,-,N/A,,Overcast,90,2014-01-10 14:08:00
9:16 AM,41.0,39.9,96,30.27,4.0,East,3.5,-,N/A,,Overcast,100,2014-01-10 14:16:00
9:25 AM,42.1,41.0,96,30.27,1.8,Variable,3.5,-,N/A,,Overcast,0,2014-01-10 14:25:00
9:40 AM,42.1,41.0,96,30.27,2.0,Variable,3.5,-,N/A,,Overcast,0,2014-01-10 14:40:00
9:48 AM,42.8,41.0,93,30.27,1.5,ENE,4.6,-,N/A,,Overcast,70,2014-01-10 14:48:00
9:53 AM,42.1,41.0,96,30.28,1.8,ENE,5.8,-,N/A,,Overcast,60,2014-01-10 14:53:00
10:05 AM,42.1,41.0,96,30.26,2.5,Variable,4.6,-,N/A,,Overcast,0,2014-01-10 15:05:00
10:14 AM,43.0,41.0,93,30.26,4.0,Variable,3.5,-,N/A,,Overcast,0,2014-01-10 15:14:00
10:37 AM,43.0,42.1,97,30.26,2.5,East,4.6,-,N/A,,Overcast,80,2014-01-10 15:37:00
10:50 AM,44.6,42.8,93,30.26,1.2,East,5.8,-,N/A,,Overcast,90,2014-01-10 15:50:00
10:53 AM,44.1,43.0,96,30.27,1.2,East,5.8,-,N/A,,Overcast,90,2014-01-10 15:53:00
11:25 AM,45.0,43.0,93,30.24,3.0,East,3.5,-,0.01,,Overcast,80,2014-01-10 16:25:00
11:53 AM,46.0,44.1,93,30.24,4.0,Variable,4.6,-,0.01,,Overcast,0,2014-01-10 16:53:00
12:01 PM,46.0,44.1,93,30.21,1.8,East,4.6,-,N/A,,Overcast,80,2014-01-10 17:01:00
12:08 PM,46.0,45.0,96,30.20,2.5,Variable,5.8,-,N/A,,Overcast,0,2014-01-10 17:08:00
12:16 PM,46.0,45.0,96,30.20,4.0,East,5.8,-,N/A,,Overcast,100,2014-01-10 17:16:00
12:45 PM,46.9,46.0,97,30.17,4.0,Variable,4.6,-,N/A,,Overcast,0,2014-01-10 17:45:00
12:53 PM,46.9,46.0,97,30.19,2.5,East,4.6,-,N/A,,Overcast,90,2014-01-10 17:53:00
1:02 PM,46.9,46.0,97,30.16,1.5,East,4.6,-,N/A,,Overcast,90,2014-01-10 18:02:00
1:53 PM,48.0,46.9,96,30.14,3.0,East,5.8,-,N/A,,Overcast,90,2014-01-10 18:53:00
2:02 PM,48.0,48.0,100,30.13,2.0,East,4.6,-,N/A,,Overcast,100,2014-01-10 19:02:00
2:14 PM,48.0,48.0,100,30.12,4.0,East,4.6,-,N/A,,Overcast,90,2014-01-10 19:14:00
2:24 PM,48.9,48.0,97,30.12,2.5,East,5.8,-,N/A,,Overcast,100,2014-01-10 19:24:00
2:53 PM,48.9,48.0,97,30.13,2.5,East,4.6,-,N/A,,Overcast,100,2014-01-10 19:53:00
3:24 PM,48.9,48.9,100,30.11,1.5,ESE,5.8,-,N/A,,Overcast,110,2014-01-10 20:24:00
3:53 PM,48.9,48.9,100,30.12,1.2,ESE,5.8,-,N/A,,Overcast,110,2014-01-10 20:53:00
4:53 PM,48.9,48.9,100,30.11,1.5,East,5.8,-,N/A,,Overcast,90,2014-01-10 21:53:00
5:53 PM,48.9,48.9,100,30.11,1.0,SE,9.2,-,N/A,,Overcast,130,2014-01-10 22:53:00
6:53 PM,48.0,48.0,100,30.10,1.2,ESE,5.8,-,N/A,,Overcast,110,2014-01-10 23:53:00
7:45 PM,48.0,48.0,100,30.08,0.8,ESE,5.8,-,N/A,,Overcast,120,2014-01-11 00:45:00
7:53 PM,48.0,48.0,100,30.09,1.0,ESE,5.8,-,0.00,Rain,Light Rain,110,2014-01-11 00:53:00
8:19 PM,48.0,48.0,100,30.08,0.8,ESE,6.9,-,0.00,Rain,Light Rain,120,2014-01-11 01:19:00
8:53 PM,48.0,48.0,100,30.08,0.8,ESE,4.6,-,0.00,,Overcast,110,2014-01-11 01:53:00
9:19 PM,48.0,48.0,100,30.08,1.5,Calm,Calm,-,0.02,Rain,Light Rain,0,2014-01-11 02:19:00
9:29 PM,48.0,48.0,100,30.07,2.0,Calm,Calm,-,0.03,Rain,Light Rain,0,2014-01-11 02:29:00
9:46 PM,48.0,46.9,96,30.07,3.0,Calm,Calm,-,0.03,Rain,Light Rain,0,2014-01-11 02:46:00
9:53 PM,48.0,48.0,100,30.08,4.0,East,3.5,-,0.03,,Overcast,100,2014-01-11 02:53:00
10:08 PM,48.0,48.0,100,30.06,2.5,ESE,3.5,-,N/A,,Overcast,120,2014-01-11 03:08:00
10:24 PM,48.0,48.0,100,30.05,1.8,East,5.8,-,N/A,,Overcast,100,2014-01-11 03:24:00
10:53 PM,48.0,48.0,100,30.06,1.5,ESE,4.6,-,N/A,,Overcast,120,2014-01-11 03:53:00
11:08 PM,48.0,48.0,100,30.03,2.5,ESE,5.8,-,N/A,,Overcast,120,2014-01-11 04:08:00
11:26 PM,48.0,48.0,100,30.03,3.0,ESE,3.5,-,0.00,,Overcast,120,2014-01-11 04:26:00
11:40 PM,48.0,48.0,100,30.02,2.0,ESE,4.6,-,0.00,,Overcast,120,2014-01-11 04:40:00
11:49 PM,48.2,48.2,100,30.02,1.2,ESE,4.6,-,0.00,,Overcast,120,2014-01-11 04:49:00
11:53 PM,48.0,48.0,100,30.03,1.0,SE,4.6,-,0.00,,Overcast,130,2014-01-11 04:53:00